Location: Friaudour
(46.0460°N, 1.2873°E)
Time: 10:49:48
(UTC+00:00)

GRACE-FO 1 - Pass Details

Date: 14 July 2020
Orbit: 480 x 507 km, 89.0° (Epoch: 06 August)

Event Time Altitude Azimuth Distance (km) Brightness Sun altitude
Rises 01:10:42 0° 0° (N) 2,567 9.6 -20.5°
Reaches altitude 10° 01:12:49 10° 1° (N) 1,678 8.4 -20.4°
Maximum altitude 01:16:27 86° 88° (E) 490 4.4 -20.2°
Enters shadow 01:16:49 71° 169° (S) 514 4.4 -20.2°
